This demonstration page uses our WeatherBlox Daily Observations layout. Learn more.

38.80484, -77.04692

Hourly Observations for April 30, 2019

Temp ( °F °C ) Dew Point ( °F °C ) Humidity (%) Winds ( mph kmh ) Pressure ( in mb ) Visibility ( mi km ) Precip ( " mm )
12:52 am 00:52 Cloudy 57 13.9 51 10.6 81 81 S 15 24 30.2 1023 10 16.0934 0 0
1:34 am 01:34 Cloudy 57 13.9 51 10.6 81 81 S 13 20 30.18 1022 10 16.0934 0 0
1:52 am 01:52 Cloudy 57 13.9 51 10.6 81 81 S 12 19 30.17 1022 10 16.0934 0 0
2:52 am 02:52 Cloudy 57 13.9 51 10.6 81 81 SSW 10 17 30.16 1021 10 16.0934 0 0
3:52 am 03:52 Mostly Cloudy 56 13.3 52 11.1 87 87 S 8 13 30.14 1021 10 16.0934 0 0
3:59 am 03:59 Partly Cloudy 56 13.3 52 11.1 87 87 S 9 15 30.14 1021 10 16.0934 0 0
4:52 am 04:52 Partly Cloudy 57 13.9 52 11.1 83 83 SW 9 15 30.15 1021 10 16.0934 0 0
5:52 am 05:52 Mostly Cloudy 57 13.9 52 11.1 83 83 SSW 5 7 30.16 1021 10 16.0934 0 0
6:52 am 06:52 Cloudy 57 13.9 52 11.1 83 83 SW 5 7 30.18 1022 10 16.0934 0 0
7:52 am 07:52 Cloudy 60 15.6 53 11.7 78 78 SW 6 9 30.19 1023 10 16.0934 0 0
8:52 am 08:52 Cloudy 62 16.7 54 12.2 75 75 SSW 7 11 30.2 1023 10 16.0934 0 0
9:52 am 09:52 Cloudy 63 17.2 56 13.3 78 78 S 6 9 30.2 1023 10 16.0934 0 0
10:52 am 10:52 Cloudy 67 19.4 57 13.9 71 71 SSE 6 9 30.21 1023 10 16.0934 0 0
11:52 am 11:52 Cloudy 69 20.6 58 14.4 68 68 S 9 15 30.2 1023 10 16.0934 0 0
1:52 pm 13:52 Mostly Cloudy 77 25 58 14.4 52 52 Calm 30.18 1022 10 16.0934 0 0
2:52 pm 14:52 Partly Cloudy 80 26.7 59 15 49 49 E 5 7 30.17 1022 10 16.0934 0 0
3:52 pm 15:52 Mostly Cloudy 81 27.2 59 15 47 47 Calm 30.17 1022 10 16.0934 0 0
4:52 pm 16:52 Mostly Cloudy 80 26.7 59 15 49 49 SSE 6 9 30.16 1021 10 16.0934 0 0
5:52 pm 17:52 Mostly Cloudy 79 26.1 60 15.6 52 52 S 5 7 30.17 1022 10 16.0934 0 0
6:52 pm 18:52 Mostly Cloudy 77 25 61 16.1 58 58 ESE 8 13 30.2 1023 10 16.0934 0 0
7:52 pm 19:52 Mostly Cloudy 75 23.9 59 15 58 58 E 15 24 30.21 1023 10 16.0934 0 0
8:52 pm 20:52 Cloudy 75 23.9 59 15 58 58 NNE 8 13 30.23 1024 10 16.0934 0 0
9:52 pm 21:52 Mostly Cloudy 71 21.7 59 15 66 66 NE 8 13 30.26 1025 10 16.0934 0 0
10:52 pm 22:52 Mostly Cloudy 69 20.6 60 15.6 73 73 NE 8 13 30.27 1025 10 16.0934 0 0
11:52 pm 23:52 Cloudy 70 21.1 58 14.4 66 66 E 8 13 30.28 1025 10 16.0934 0 0

Powered by AerisWeather